Location: Unspecified
(0.0000°N, 0.0000°E)
Time: 06:10:37
(UTC+00:00)

Vanguard 2 - Visible Passes

Search period start: 24 March 2017 00:00
Search period end: 03 April 2017 00:00
Orbit: 553 x 2940 km, 32.9° (Epoch: 22 March)

Date Brightness Start Highest point End Pass type
(mag) Time Alt. Az. Time Alt. Az. Time Alt. Az.
24 Mar 10.4 19:50:11 10° SSW 20:00:35 23° SSE 20:02:39 22° SSE visible
24 Mar 11.1 22:01:51 10° SW 22:04:06 16° SW 22:04:06 16° SW visible
25 Mar 10.2 20:08:05 10° SSW 20:19:51 30° SSE 20:19:59 30° SSE visible
25 Mar 11.3 22:20:14 10° SW 22:21:26 13° SW 22:21:26 13° SW visible
26 Mar 11.0 18:13:46 10° SSW 18:24:31 20° SSE 18:33:16 10° SE visible
26 Mar 10.0 20:26:04 10° SW 20:37:22 39° S 20:37:22 39° S visible
27 Mar 10.7 18:31:59 10° SSW 18:44:13 24° SSE 18:53:22 11° ESE visible
27 Mar 9.9 20:44:12 10° SW 20:54:49 46° S 20:54:49 46° S visible
28 Mar 10.4 18:50:03 10° SSW 19:03:40 31° SSE 19:10:53 18° ESE visible
28 Mar 9.9 21:02:30 10° SW 21:12:21 47° SW 21:12:21 47° SW visible
29 Mar 10.1 19:08:06 10° SW 19:22:52 39° SSE 19:28:29 27° ESE visible
29 Mar 10.1 21:21:06 10° WSW 21:29:57 43° WSW 21:29:57 43° WSW visible
30 Mar 9.7 19:26:13 10° SW 19:41:51 51° SSE 19:46:10 38° ESE visible
30 Mar 10.4 21:40:01 10° WSW 21:47:38 35° W 21:47:38 35° W visible
31 Mar 9.4 19:44:28 10° SW 20:00:36 67° SSE 20:03:55 51° E visible
31 Mar 10.8 21:59:20 10° WSW 22:05:25 26° W 22:05:25 26° W visible
01 Apr 9.3 20:02:55 10° SW 20:19:10 86° SE 20:21:46 63° ENE visible
01 Apr 11.1 22:19:13 10° W 22:23:16 19° W 22:23:16 19° W visible
02 Apr 10.4 18:08:24 10° SW 18:25:08 48° SSE 18:37:28 10° E visible
02 Apr 9.4 20:21:39 10° WSW 20:37:31 73° NW 20:39:41 62° NNE visible
02 Apr 11.4 22:39:51 10° W 22:41:11 12° WNW 22:41:11 12° WNW visible
